SCP
0 0 0 0 -0 -0 0 0 -0 -0 -0 -0 -0 -0 -0 -0 -0 -0 -0 -0 -0 -0 -0 -0 -0 -0 -0 -0 -0 -0 -0 -0 -0 -0 -0 -0 -0 -0 -0 -0 -0 0 -0
0 0 0 -0 -0 -0 -0 0 0 0 -0 -0 -0 -0 -0 -0 -0 -0 -0 -0 -0 -0 -0 -0 -0 -0 -0 -0 -0 -0 -0 -0 0 0 -0 -0 -0 -0 -0 -0 -0 -0 -0
0 0 -0 -0 -0 -0 -0 0 0 0 -0 -0 -0 -0 -0 -0 -0 -0 -0 -0 -0 -0 -0 -0 -0 -0 -0 -0 -0 -0 -0 0 -0 -0 -0 0 -0 -0 -0 -0 -0 -0 -0
0 0 -0 -0 -0 -0 -0 0 0 0 -0 -0 -0 -0 -0 -0 -0 -0 -0 -0 -0 -0 -0 -0 -0 -0 -0 -0 -0 -0 0 0 0 0 0 0 0 -0 -0 -0 -0 -0 -0
0 0 -0 -0 -0 -0 -0 0 0 0 0 -0 -0 -0 -0 -0 -0 -0 -0 -0 -0 -0 -0 -0 -0 -0 -0 -0 -0 0 0 0 -0 0 0 0 0 0 -0 -0 -0 -0 0
-0 0 -0 -0 -0 0 0 -0 0 0 -0 -0 -0 -0 -0 -0 -0 -0 -0 -0 -0 -0 -0 -0 -0 -0 -0 -0 -0 0 0 0 0 0 0 0 0 -0 -0 0 -0 0 0
0 -0 0 0 -0 0 -0 0 0 -0 -0 -0 -0 -0 -0 -0 -0 -0 -0 -0 -0 -0 -0 -0 -0 -0 -0 -0 0 0 0 0 0 0 0 0 0 0 0 0 0 0 0
-0 -0 -0 -0 0 0 -0 0 0 -0 -0 -0 -0 -0 -0 -0 -0 -0 -0 -0 -0 -0 -0 -0 -0 -0 -0 0 0 -0 0 0 0 0 0 0 0 0 0 0 0 0 0
-0 -0 -0 0 0 0 0 -0 -0 -0 -0 -0 -0 -0 -0 -0 -0 -0 -0 -0 -0 -0 -0 -0 -0 -0 -0 0 0 0 0 0 0 0 0 0 0 0 0 0 0 0 0
-0 0 -0 -0 -0 -0 0 0 0 0 -0 -0 -0 -0 -0 -0 -0 -0 -0 -0 -0 -0 -0 -0 -0 -0 -0 -0 0 0 0 -0 0 0 0 0 0 0 0 0 0 0 0
0 0 0 -0 -0 -0 -0 0 0 -0 -0 -0 -0 -0 -0 -0 -0 -0 -0 -0 -0 -0 -0 -0 -0 0 0 -0 0 0 -0 0 0 0 0 0 0 0 0 0 0 0 0
-0 0 0 -0 0 -0 -0 -0 -0 0 0 -0 -0 -0 0 -0 -0 -0 -0 -0 -0 -0 -0 -0 0 0 -0 0 0 0 0 0 0 0 0 0 0 0 0 0 0 0 0
-0 -0 0 0 0 -0 -0 -0 -0 -0 -0 -0 -0 -0 -0 -0 -0 -0 -0 -0 -0 -0 -0 -0 -0 0 0 0 0 0 0 0 0 0 0 0 0 0 0 0 0 0 0
-0 -0 0 -0 0 -0 -0 -0 -0 -0 -0 0 -0 -0 -0 -0 -0 -0 -0 -0 -0 0 0 0 0 0 0 0 0 0 0 0 0 0 0 0 0 0 0 0 0 0 0
0 0 0 0 0 0 0 -0 0 0 0 0 0 0 0 0 0 0 0 0 0 0 0 0 0 0 0 0 0 0 0 0 0 0 0 0 0 0 0 0 0 0 0
0 0 0 -0 -0 0 0 0 0 0 0 0 0 0 0 0 0 0 0 0 0 0 0 0 0 0 0 0 0 0 0 0 0 0 0 0 0 0 0 0 0 0 0
0 0 0 0 0 0 0 0 0 0 0 0 0 0 0 0 0 0 0 0 0 0 0 0 0 0 0 0 0 0 0 0 0 0 0 0 0 0 0 0 0 0 0
0 0 0 0 0 0 0 0 0 0 0 0 0 0 0 0 0 0 0 0 0 0 0 0 0 0 0 0 0 0 0 0 0 0 0 0 0 0 0 0 0 0 0
0 0 0 0 0 0 0 0 0 0 0 0 0 0 0 0 0 0 0 0 0 0 0 0 0 0 0 0 0 0 0 0 0 0 0 0 0 0 0 0 0 0 0
0 0 0 0 0 0 0 0 0 0 0 0 0 0 0 0 0 0 0 0 0 0 0 0 0 0 0 0 0 0 0 0 0 0 0 0 0 0 0 0 0 0 0
0 0 0 0 0 0 0 0 0 0 0 0 0 0 0 0 0 0 0 0 0 0 0 0 0 0 0 0 0 0 0 0 0 0 0 0 0 0 0 0 0 0 0
0 0 0 0 0 0 0 0 0 0 0 0 0 0 0 0 0 0 0 0 0 0 0 0 0 0 0 0 0 0 0 0 0 0 0 0 0 0 0 0 0 0 0
0 0 0 0 0 0 0 0 0 0 0 0 0 0 0 0 0 0 0 0 0 0 0 0 0 0 0 0 0 0 0 0 0 0 0 0 0 0 0 0 0 0 0
0 0 0 0 0 0 0 0 0 0 0 0 0 0 0 0 0 0 0 0 0 0 0 0 0 0 0 0 0 0 0 0 0 0 0 0 0 0 0 0 0 0 0
0 0 0 0 0 0 0 0 0 0 0 0 0 0 0 0 0 0 0 0 0 0 0 0 0 0 0 0 0 0 0 0 0 0 0 0 0 0 0 0 0 0 0
0 0 0 0 0 0 0 0 0 0 0 0 0 0 0 0 0 0 0 0 0 0 0 0 0 0 0 0 0 0 0 0 0 0 0 0 0 0 0 0 0 0 0
Wind_Speed_500mb
26 30 25 21 13 11 15 16 16 17 20 19 21 23 25 24 23 25 22 15 14 19 20 20 21 22 24 26 27 28 28 30 39 43 37 39 41 41 43 39 40 43 41
24 24 22 17 12 10 16 16 19 18 16 16 16 17 18 18 20 24 24 16 20 22 24 23 23 25 27 29 31 33 33 33 36 39 38 35 41 38 41 36 38 47 44
28 24 24 14 12 9 10 14 18 16 17 16 13 12 14 17 21 24 25 33 31 32 28 29 29 30 31 31 31 34 38 41 41 39 33 38 32 33 30 32 38 36 32
28 25 15 13 11 11 12 15 20 20 22 16 16 19 19 18 22 28 30 31 29 30 31 32 33 32 32 33 35 37 38 44 39 41 35 34 36 36 34 35 32 30 30
26 24 16 14 12 13 15 17 19 23 24 22 28 27 28 32 33 33 32 30 25 27 30 34 33 34 34 33 34 36 40 49 40 32 33 32 34 38 37 36 37 36 32
28 18 21 18 16 19 19 16 18 27 27 29 29 29 31 34 33 30 24 25 30 26 29 31 31 32 31 30 33 34 34 42 32 32 33 39 41 42 41 40 42 40 37
28 22 24 19 20 26 21 18 21 23 28 27 27 29 29 33 33 28 24 26 25 25 26 28 29 31 31 32 31 31 34 41 31 30 33 39 41 42 42 42 42 42 40
28 25 25 23 24 26 21 19 20 19 22 22 22 23 28 25 26 26 25 25 25 24 25 26 27 28 29 30 30 32 32 38 30 31 36 39 42 41 40 39 39 38 38
26 27 25 27 26 25 20 17 18 17 19 21 22 22 22 23 24 26 24 22 26 24 24 23 23 25 27 29 32 34 33 37 31 30 31 37 40 39 37 36 35 35 36
28 25 25 26 26 25 23 18 16 17 19 21 21 23 21 20 20 21 22 20 21 20 20 20 21 23 25 27 29 30 31 33 28 29 32 33 34 32 31 31 33 33 33
39 29 25 25 26 23 19 23 20 18 20 21 24 24 21 16 17 15 16 18 18 17 17 18 19 21 22 22 22 22 29 26 26 25 26 26 26 26 27 28 28 29 30
39 33 31 33 29 26 21 20 19 20 19 18 19 20 16 15 14 13 14 15 15 14 14 16 16 16 18 14 16 19 21 23 22 21 21 22 23 24 25 25 26 26 26
35 40 34 40 33 30 27 25 23 21 20 18 17 17 17 15 14 11 10 11 11 10 10 11 13 13 12 13 14 16 17 18 15 15 17 18 20 22 24 27 30 32 32
40 43 38 39 39 35 31 29 25 23 22 20 18 16 15 14 13 12 9 7 6 6 6 6 7 9 10 11 12 14 13 12 10 11 12 16 18 22 25 26 27 28 27
44 46 46 37 44 40 36 29 27 26 25 23 21 18 16 14 13 12 10 9 7 5 5 4 4 5 7 8 9 10 9 7 7 9 13 16 20 24 25 25 26 25 26
46 47 48 43 43 44 41 37 33 30 29 26 22 20 19 18 16 13 12 11 10 8 6 5 2 1 3 4 4 3 3 3 7 12 15 18 20 22 23 23 23 28 30
49 47 49 47 42 44 45 42 39 37 32 31 28 26 24 21 18 16 15 13 13 12 9 7 6 5 3 2 2 3 5 8 11 14 19 20 21 21 21 23 28 30 32
47 56 54 53 51 48 46 43 40 39 37 32 32 31 29 26 23 22 20 19 19 16 14 12 10 8 7 7 6 7 9 9 12 18 20 17 17 19 22 24 27 28 30
51 52 58 59 59 55 50 48 46 43 39 39 37 37 35 32 30 28 27 25 21 21 18 17 14 11 8 5 5 7 9 13 15 18 13 13 17 19 21 24 26 28 30
50 51 53 59 61 60 56 53 52 49 47 46 43 41 39 37 36 35 33 33 27 23 21 20 16 12 11 12 11 13 16 16 17 11 11 14 16 18 19 24 24 31 32
49 53 58 60 63 62 64 63 61 59 56 54 53 48 44 40 38 36 32 29 29 26 24 23 19 19 18 18 18 15 11 14 11 13 6 10 17 16 23 26 23 17 23
59 63 63 62 63 67 67 64 65 61 60 57 55 52 47 44 41 38 32 33 30 27 23 23 24 22 23 21 21 23 12 11 9 12 15 13 12 17 17 18 21 18 21
67 70 69 68 62 68 70 68 65 57 55 58 62 58 55 51 49 44 41 39 38 35 31 29 29 29 29 32 31 23 10 10 9 14 15 13 14 15 13 18 14 17 22
70 72 75 75 75 72 74 75 74 75 75 72 65 62 60 53 54 49 40 41 41 40 41 40 40 37 37 39 38 38 31 28 16 9 12 14 19 11 13 15 18 22 24
68 74 77 78 79 79 74 80 83 84 80 71 65 64 61 55 50 48 47 44 48 51 48 47 47 46 43 44 44 44 29 31 31 28 22 17 13 13 16 16 20 26 30
69 72 75 79 83 81 82 84 87 89 86 78 70 66 68 65 60 59 57 51 48 54 54 48 48 47 44 47 45 33 34 29 31 32 29 26 19 14 16 22 27 28 33
Wind_Direction_500mb
163 156 147 164 178 169 156 161 149 136 120 120 120 115 111 108 101 96 92 93 104 105 92 82 75 72 71 71 72 75 78 78 70 65 70 73 73 64 70 67 64 60 64
162 161 146 168 176 161 143 153 158 144 142 137 135 126 117 118 112 113 109 101 96 99 83 80 77 77 80 84 82 78 78 82 78 72 54 67 70 69 69 69 58 59 64
152 161 152 157 161 162 159 157 159 166 169 179 174 153 132 124 123 128 110 90 94 88 84 83 85 84 83 83 79 78 82 84 72 89 81 61 62 63 75 68 75 69 64
148 146 161 148 154 147 131 134 143 141 145 135 152 154 144 139 122 111 97 98 92 89 85 87 84 82 80 79 80 84 81 81 73 68 67 53 61 66 67 62 65 70 69
151 143 150 138 143 146 123 111 139 142 132 133 118 125 123 115 111 106 106 104 93 93 88 84 80 76 75 79 84 82 84 77 69 67 76 75 61 61 64 59 58 58 55
153 152 139 137 142 139 132 125 118 128 124 121 123 125 121 118 114 109 113 118 102 91 85 86 78 74 73 80 84 81 82 85 77 73 65 66 67 66 63 61 58 57 57
136 165 143 139 137 135 134 135 126 118 124 121 124 123 123 122 122 119 109 109 115 99 88 85 74 71 71 79 80 80 82 85 76 71 70 69 68 65 64 62 60 58 56
157 149 149 142 141 132 143 140 125 119 119 123 123 119 122 121 123 118 104 106 113 104 94 84 75 71 72 79 81 80 83 82 77 72 71 71 69 66 64 61 59 57 54
163 158 155 151 148 149 147 143 136 126 122 122 122 122 122 121 119 118 110 107 110 105 94 83 76 74 76 81 82 82 82 85 75 80 73 72 68 64 60 57 54 51 47
159 157 166 160 154 161 164 159 153 142 133 128 130 129 120 113 111 116 118 114 108 102 90 80 75 74 76 79 82 84 82 73 72 67 70 67 63 58 53 48 44 41 38
159 166 184 163 156 156 168 170 163 149 135 131 128 129 113 109 116 120 117 112 112 103 93 82 76 75 80 79 81 82 78 79 77 72 65 61 60 53 45 39 34 31 28
176 174 178 175 179 165 168 166 162 155 147 143 143 129 149 134 139 126 125 122 116 107 93 82 77 81 79 82 85 81 84 79 73 68 57 52 45 37 28 23 19 17 15
194 179 180 185 181 180 176 173 171 167 166 162 158 157 154 148 143 138 137 130 121 115 94 87 74 81 88 96 93 94 91 77 64 55 45 36 29 22 14 8 6 3 4
193 196 178 191 189 192 183 180 182 177 176 177 174 166 165 165 164 161 152 148 138 131 135 110 82 81 89 92 96 100 96 88 68 47 23 20 11 3 0 357 353 352 352
198 201 190 196 195 198 192 182 193 188 189 189 185 180 178 182 179 178 180 176 180 179 169 149 113 78 85 95 98 101 96 74 45 21 5 360 354 351 347 345 344 349 350
204 206 204 194 202 200 204 200 197 197 199 202 200 198 196 195 194 196 199 199 202 202 198 197 190 128 103 102 118 113 77 26 352 350 354 345 347 345 341 346 345 346 345
207 208 209 207 209 210 206 209 207 204 207 209 210 210 211 213 214 215 221 221 222 222 223 228 232 233 228 229 284 302 313 326 332 340 340 339 341 342 342 341 344 341 338
212 211 212 210 214 215 214 214 216 216 217 218 221 222 221 222 225 225 230 230 236 235 232 232 238 245 251 254 259 281 303 311 316 323 327 329 340 334 336 341 336 333 336
217 215 214 215 216 219 217 215 220 222 220 224 227 229 229 229 232 233 234 238 243 244 242 239 235 228 235 258 275 300 303 302 310 308 309 321 334 334 335 334 334 330 327
217 212 218 219 220 220 223 221 222 225 226 226 229 231 235 236 234 235 244 247 241 247 248 242 236 229 235 247 272 289 296 292 297 286 282 319 327 332 324 329 334 331 332
216 214 215 217 221 222 222 223 224 225 227 229 231 233 233 236 239 237 244 243 244 244 245 246 234 238 250 260 278 291 292 283 253 273 269 304 328 338 326 326 328 341 329
217 216 215 218 220 224 228 230 233 233 235 235 236 235 233 238 241 243 243 239 239 238 240 233 241 248 258 264 266 270 291 263 284 203 299 302 322 338 318 324 334 342 338
223 222 218 219 222 225 227 230 233 232 234 234 231 232 233 237 237 240 237 244 244 242 241 246 246 252 261 263 260 258 251 237 202 246 285 301 313 324 306 313 337 348 348
231 227 229 226 225 226 230 228 231 231 233 232 236 237 239 239 235 237 235 237 237 237 243 246 246 245 249 258 265 272 246 250 258 249 268 281 314 307 307 317 336 347 347
238 234 231 231 230 228 224 232 235 238 240 242 240 240 239 238 238 238 236 240 240 241 239 246 248 247 251 255 265 265 240 240 258 246 249 256 307 295 299 308 331 339 339
241 238 234 233 233 232 233 236 236 241 242 238 235 239 236 236 237 236 234 236 246 245 245 246 247 249 252 257 266 242 246 249 250 249 253 268 267 252 280 309 324 331 336
Wind_Speed_850mb
26 30 25 21 13 11 15 16 16 17 20 19 21 23 25 24 23 25 22 15 14 19 20 20 21 22 24 26 27 28 28 30 39 43 37 39 41 41 43 39 40 43 41
24 24 22 17 12 10 16 16 19 18 16 16 16 17 18 18 20 24 24 16 20 22 24 23 23 25 27 29 31 33 33 33 36 39 38 35 41 38 41 36 38 47 44
28 24 24 14 12 9 10 14 18 16 17 16 13 12 14 17 21 24 25 33 31 32 28 29 29 30 31 31 31 34 38 41 41 39 33 38 32 33 30 32 38 36 32
28 25 15 13 11 11 12 15 20 20 22 16 16 19 19 18 22 28 30 31 29 30 31 32 33 32 32 33 35 37 38 44 39 41 35 34 36 36 34 35 32 30 30
26 24 16 14 12 13 15 17 19 23 24 22 28 27 28 32 33 33 32 30 25 27 30 34 33 34 34 33 34 36 40 49 40 32 33 32 34 38 37 36 37 36 32
28 18 21 18 16 19 19 16 18 27 27 29 29 29 31 34 33 30 24 25 30 26 29 31 31 32 31 30 33 34 34 42 32 32 33 39 41 42 41 40 42 40 37
28 22 24 19 20 26 21 18 21 23 28 27 27 29 29 33 33 28 24 26 25 25 26 28 29 31 31 32 31 31 34 41 31 30 33 39 41 42 42 42 42 42 40
28 25 25 23 24 26 21 19 20 19 22 22 22 23 28 25 26 26 25 25 25 24 25 26 27 28 29 30 30 32 32 38 30 31 36 39 42 41 40 39 39 38 38
26 27 25 27 26 25 20 17 18 17 19 21 22 22 22 23 24 26 24 22 26 24 24 23 23 25 27 29 32 34 33 37 31 30 31 37 40 39 37 36 35 35 36
28 25 25 26 26 25 23 18 16 17 19 21 21 23 21 20 20 21 22 20 21 20 20 20 21 23 25 27 29 30 31 33 28 29 32 33 34 32 31 31 33 33 33
39 29 25 25 26 23 19 23 20 18 20 21 24 24 21 16 17 15 16 18 18 17 17 18 19 21 22 22 22 22 29 26 26 25 26 26 26 26 27 28 28 29 30
39 33 31 33 29 26 21 20 19 20 19 18 19 20 16 15 14 13 14 15 15 14 14 16 16 16 18 14 16 19 21 23 22 21 21 22 23 24 25 25 26 26 26
35 40 34 40 33 30 27 25 23 21 20 18 17 17 17 15 14 11 10 11 11 10 10 11 13 13 12 13 14 16 17 18 15 15 17 18 20 22 24 27 30 32 32
40 43 38 39 39 35 31 29 25 23 22 20 18 16 15 14 13 12 9 7 6 6 6 6 7 9 10 11 12 14 13 12 10 11 12 16 18 22 25 26 27 28 27
44 46 46 37 44 40 36 29 27 26 25 23 21 18 16 14 13 12 10 9 7 5 5 4 4 5 7 8 9 10 9 7 7 9 13 16 20 24 25 25 26 25 26
46 47 48 43 43 44 41 37 33 30 29 26 22 20 19 18 16 13 12 11 10 8 6 5 2 1 3 4 4 3 3 3 7 12 15 18 20 22 23 23 23 28 30
49 47 49 47 42 44 45 42 39 37 32 31 28 26 24 21 18 16 15 13 13 12 9 7 6 5 3 2 2 3 5 8 11 14 19 20 21 21 21 23 28 30 32
47 56 54 53 51 48 46 43 40 39 37 32 32 31 29 26 23 22 20 19 19 16 14 12 10 8 7 7 6 7 9 9 12 18 20 17 17 19 22 24 27 28 30
51 52 58 59 59 55 50 48 46 43 39 39 37 37 35 32 30 28 27 25 21 21 18 17 14 11 8 5 5 7 9 13 15 18 13 13 17 19 21 24 26 28 30
50 51 53 59 61 60 56 53 52 49 47 46 43 41 39 37 36 35 33 33 27 23 21 20 16 12 11 12 11 13 16 16 17 11 11 14 16 18 19 24 24 31 32
49 53 58 60 63 62 64 63 61 59 56 54 53 48 44 40 38 36 32 29 29 26 24 23 19 19 18 18 18 15 11 14 11 13 6 10 17 16 23 26 23 17 23
59 63 63 62 63 67 67 64 65 61 60 57 55 52 47 44 41 38 32 33 30 27 23 23 24 22 23 21 21 23 12 11 9 12 15 13 12 17 17 18 21 18 21
67 70 69 68 62 68 70 68 65 57 55 58 62 58 55 51 49 44 41 39 38 35 31 29 29 29 29 32 31 23 10 10 9 14 15 13 14 15 13 18 14 17 22
70 72 75 75 75 72 74 75 74 75 75 72 65 62 60 53 54 49 40 41 41 40 41 40 40 37 37 39 38 38 31 28 16 9 12 14 19 11 13 15 18 22 24
68 74 77 78 79 79 74 80 83 84 80 71 65 64 61 55 50 48 47 44 48 51 48 47 47 46 43 44 44 44 29 31 31 28 22 17 13 13 16 16 20 26 30
69 72 75 79 83 81 82 84 87 89 86 78 70 66 68 65 60 59 57 51 48 54 54 48 48 47 44 47 45 33 34 29 31 32 29 26 19 14 16 22 27 28 33
Wind_Direction_850mb
163 156 147 164 178 169 156 161 149 136 120 120 120 115 111 108 101 96 92 93 104 105 92 82 75 72 71 71 72 75 78 78 70 65 70 73 73 64 70 67 64 60 64
162 161 146 168 176 161 143 153 158 144 142 137 135 126 117 118 112 113 109 101 96 99 83 80 77 77 80 84 82 78 78 82 78 72 54 67 70 69 69 69 58 59 64
152 161 152 157 161 162 159 157 159 166 169 179 174 153 132 124 123 128 110 90 94 88 84 83 85 84 83 83 79 78 82 84 72 89 81 61 62 63 75 68 75 69 64
148 146 161 148 154 147 131 134 143 141 145 135 152 154 144 139 122 111 97 98 92 89 85 87 84 82 80 79 80 84 81 81 73 68 67 53 61 66 67 62 65 70 69
151 143 150 138 143 146 123 111 139 142 132 133 118 125 123 115 111 106 106 104 93 93 88 84 80 76 75 79 84 82 84 77 69 67 76 75 61 61 64 59 58 58 55
153 152 139 137 142 139 132 125 118 128 124 121 123 125 121 118 114 109 113 118 102 91 85 86 78 74 73 80 84 81 82 85 77 73 65 66 67 66 63 61 58 57 57
136 165 143 139 137 135 134 135 126 118 124 121 124 123 123 122 122 119 109 109 115 99 88 85 74 71 71 79 80 80 82 85 76 71 70 69 68 65 64 62 60 58 56
157 149 149 142 141 132 143 140 125 119 119 123 123 119 122 121 123 118 104 106 113 104 94 84 75 71 72 79 81 80 83 82 77 72 71 71 69 66 64 61 59 57 54
163 158 155 151 148 149 147 143 136 126 122 122 122 122 122 121 119 118 110 107 110 105 94 83 76 74 76 81 82 82 82 85 75 80 73 72 68 64 60 57 54 51 47
159 157 166 160 154 161 164 159 153 142 133 128 130 129 120 113 111 116 118 114 108 102 90 80 75 74 76 79 82 84 82 73 72 67 70 67 63 58 53 48 44 41 38
159 166 184 163 156 156 168 170 163 149 135 131 128 129 113 109 116 120 117 112 112 103 93 82 76 75 80 79 81 82 78 79 77 72 65 61 60 53 45 39 34 31 28
176 174 178 175 179 165 168 166 162 155 147 143 143 129 149 134 139 126 125 122 116 107 93 82 77 81 79 82 85 81 84 79 73 68 57 52 45 37 28 23 19 17 15
194 179 180 185 181 180 176 173 171 167 166 162 158 157 154 148 143 138 137 130 121 115 94 87 74 81 88 96 93 94 91 77 64 55 45 36 29 22 14 8 6 3 4
193 196 178 191 189 192 183 180 182 177 176 177 174 166 165 165 164 161 152 148 138 131 135 110 82 81 89 92 96 100 96 88 68 47 23 20 11 3 0 357 353 352 352
198 201 190 196 195 198 192 182 193 188 189 189 185 180 178 182 179 178 180 176 180 179 169 149 113 78 85 95 98 101 96 74 45 21 5 360 354 351 347 345 344 349 350
204 206 204 194 202 200 204 200 197 197 199 202 200 198 196 195 194 196 199 199 202 202 198 197 190 128 103 102 118 113 77 26 352 350 354 345 347 345 341 346 345 346 345
207 208 209 207 209 210 206 209 207 204 207 209 210 210 211 213 214 215 221 221 222 222 223 228 232 233 228 229 284 302 313 326 332 340 340 339 341 342 342 341 344 341 338
212 211 212 210 214 215 214 214 216 216 217 218 221 222 221 222 225 225 230 230 236 235 232 232 238 245 251 254 259 281 303 311 316 323 327 329 340 334 336 341 336 333 336
217 215 214 215 216 219 217 215 220 222 220 224 227 229 229 229 232 233 234 238 243 244 242 239 235 228 235 258 275 300 303 302 310 308 309 321 334 334 335 334 334 330 327
217 212 218 219 220 220 223 221 222 225 226 226 229 231 235 236 234 235 244 247 241 247 248 242 236 229 235 247 272 289 296 292 297 286 282 319 327 332 324 329 334 331 332
216 214 215 217 221 222 222 223 224 225 227 229 231 233 233 236 239 237 244 243 244 244 245 246 234 238 250 260 278 291 292 283 253 273 269 304 328 338 326 326 328 341 329
217 216 215 218 220 224 228 230 233 233 235 235 236 235 233 238 241 243 243 239 239 238 240 233 241 248 258 264 266 270 291 263 284 203 299 302 322 338 318 324 334 342 338
223 222 218 219 222 225 227 230 233 232 234 234 231 232 233 237 237 240 237 244 244 242 241 246 246 252 261 263 260 258 251 237 202 246 285 301 313 324 306 313 337 348 348
231 227 229 226 225 226 230 228 231 231 233 232 236 237 239 239 235 237 235 237 237 237 243 246 246 245 249 258 265 272 246 250 258 249 268 281 314 307 307 317 336 347 347
238 234 231 231 230 228 224 232 235 238 240 242 240 240 239 238 238 238 236 240 240 241 239 246 248 247 251 255 265 265 240 240 258 246 249 256 307 295 299 308 331 339 339
241 238 234 233 233 232 233 236 236 241 242 238 235 239 236 236 237 236 234 236 246 245 245 246 247 249 252 257 266 242 246 249 250 249 253 268 267 252 280 309 324 331 336